Tracking 27422 objects as of 31-May-2023
HD Live streaming from Space Station
objects crossing your sky now

USA 37

Track USA 37 now!
USA 37 is classified as:


NORAD ID: 19976
Int'l Code: 1989-035A
Perigee: 31,813.5 km
Apogee: 39,775.0 km
Inclination: 7.8 °
Period: 1,436.1 minutes
Semi major axis: 42165 km
RCS: Unknown
Launch date: May 10, 1989
Source: United States (US)
Launch site: AIR FORCE EASTERN TEST RANGE (AFETR)
Your satellite tracking list
Your tracking list is empty




NASA's NSSDC Master Catalog

Two Line Element Set (TLE):
1 19976U 89035A   22235.84347697 0.00000000  00000-0  00000-0 0    02
2 19976   7.7980   6.4532 0944087 317.3107  35.7262  1.00270000    04
Source of the keplerian elements: McCants